LiveATC.Net - Listen to live air traffic control over the Internet! Contact LiveATC.net for advertising information


ICAO: KTAN  IATA: TAN   Airport: Taunton Municipal Airport
City: Taunton   State/Province: Massachusetts
Country: United States   Continent: North America
KTAN METAR Weather: KTAN 220852Z AUTO 00000KT 10SM -RA FEW090 OVC110 17/16 A3006 RMK AO2 RAB19 SLP178 P0001 60001 T01720161 55001
KTAN Flight Activity (FlightAware)
KTAN Airport Info   (AirNav) (iFlightPlanner)
KTAN CTAF
Feed Status: DOWN
Last heard on: 2014-07-26 00:52:03 (27 days 8 hours 59 minutes ago)
KTAN CTAF Audio Archives
FacilityFrequency
Mansfield (1B9) UNICOM123.000
Plymouth (KPYM) UNICOM123.000
Taunton (KTAN) UNICOM122.700


NOTICE

Unauthorized use prohibited. See LiveATC.net Terms of Service


Find LiveATC Audio Streams


Airport/ARTCC Code

Frequency
(e.g., 124.400, 128.75)
Site-wide search

Browse LiveATC Feeds
LiveATC Coverage Map
Top 50 LiveATC Feeds
Bad Weather Areas

LiveATC FAQ
Offer a LiveATC Feed
Contact LiveATC.net
Press Inquiries

LiveATC on iPhone
LiveATC on Android

LiveATC Mobile
(Mobile browser)

ATC Audio Archives
Interesting Recordings

LiveATC Forums


Home Page
About LiveATC.net
Make a Donation
LiveATC Bookstore

Terms of Use
Privacy Policy

ATC/Radar Sites
U.S. ARTCC Freqs
Canadian Air Freqs

AIRMETs/SIGMETs

FAA Airport Status
Nat'l Airspace Status
Arrival Demand Charts


Server Software By:
Icecast.org
Liquidsoap

Please make a donation to help us keep growing!